Back to catalog

Sitro-AIS-63

AliveCommunicationsSSO
NORAD 67294·PAYLOAD·🇷🇺 Russia

Launched Dec 28, 2025 from Vostochny Cosmodrome

Loading…

Next Passes (next 24 hours)

TLE

FreshSource: Space-Track

Epoch: Sep 13, 2026, 16:20 UTC

1 67294U 25313AY  26256.68097133  .00008271  00000-0  31941-3 0  9999
2 67294  97.3874 330.7484 0009531  51.5731 308.6362 15.26477965 39470

Track Sitro-AIS-63 in real time with AllMySat

Download on the App Store